Regional Weather Roundup
Issued by NWS

Home | Current Version | Previous Version | Text Only | Print | Product List | Glossary On
Versions: 1 2 3 4 5 6 7 8 9 10 11 12 13 14 15 16 17 18 19 20 21 22 23 24 25 26 27 28 29 30 31 32 33 34 35 36 37 38 39 40 41 42 43 44 45 46 47 48 49
000
ASUS45 KTFX 030510
RWRMT
MONTANA REGIONAL WEATHER ROUNDUP
NATIONAL WEATHER SERVICE GREAT FALLS MT
1100 PM MDT TUE JUN 02 2015

NOTE: "FAIR" INDICATES FEW OR NO CLOUDS BELOW 12000 FEET WITH NO
SIGNIFICANT WEATHER AND/OR OBSTRUCTIONS TO VISIBILITY.

MTZ001>007-043-030600-
WEST OF THE DIVIDE

CITY           SKY/WX    TMP DP  RH WIND       PRES   REMARKS
KALISPELL      CLOUDY    53  51  93 CALM      29.99F
MISSOULA       LGT RAIN  54  49  83 E5        30.02R
BUTTE          PTCLDY    50  42  74 W7        30.05R
MULLAN PASS    MOCLDY    43  38  82 CALM      30.05S
DEER LODGE       N/A     52  45  76 N6        30.07S
EUREKA           N/A     54  48  82 SE7       29.99S
HAMILTON         N/A     54  46  76 S8        30.04R
LIBBY            N/A     52  46  82 CALM      29.99S
$$

MTZ008-052>055-030600-
SOUTHWEST MONTANA

CITY           SKY/WX    TMP DP  RH WIND       PRES   REMARKS
BOZEMAN        CLOUDY    53  47  79 S8        30.01R
DILLON         CLOUDY    52  48  86 SE7       30.02R
$$

MTZ009-010-012-014-046-048-049-054-030600-
EAST SLOPES AND CENTRAL MONTANA

CITY           SKY/WX    TMP DP  RH WIND       PRES   REMARKS
CUT BANK       CLOUDY    49  46  90 E5        29.98S
GREAT FALLS    MOCLDY    51  49  92 SW5       29.97S
MALMSTROM AFB  MOCLDY    53  51  94 SW5       29.97S
HELENA         PTCLDY    55  46  71 N5        29.98S
$$

MTZ011-013-016-021-045-047-050-051-030600-
NORTH CENTRAL MONTANA

CITY           SKY/WX    TMP DP  RH WIND       PRES   REMARKS
HAVRE          CLOUDY    53  50  89 E10       29.95S
LEWISTOWN      CLOUDY    51  48  89 SW5       29.99R
N BAR RANCH    MOCLDY    46  46 100 NW3       30.03R
CHINOOK          N/A     55  50  82 CALM      29.97S
FORT BENTON      N/A     55  54  94 CALM      29.96S
$$

MTZ017>020-022>027-061-062-030600-
NORTHEAST MONTANA

CITY           SKY/WX    TMP DP  RH WIND       PRES   REMARKS
GLASGOW        CLOUDY    56  51  84 E7        29.95R
JORDAN           N/A     52  50  93 CALM      29.97R
SIDNEY         PTCLDY    54  50  87 NW8       29.93S
WOLF POINT     MOCLDY    56  52  86 E3        29.96R
PLENTYWOOD       N/A     55  54  94 NW3       29.95S
POPLAR           N/A     54  54 100 NE3       29.95S
$$

MTZ028>42-056>058-030600-
SOUTHCENTRAL AND SOUTHEAST MONTANA

CITY           SKY/WX    TMP DP  RH WIND       PRES   REMARKS
BAKER          CLOUDY    55  50  83 N10       29.95R
BILLINGS       MOCLDY    55  52  89 NW5       30.00R
LIVINGSTON     CLOUDY    54  46  74 SE3       30.00R
MILES CITY     CLOUDY    56  53  90 W7        29.99R
BIG TIMBER       N/A     55  45  67 SW9       30.00S
FORSYTH          N/A     55  55 100 SE12      29.97F
$$

REGIONAL REPORTS...DAKOTAS

CITY           SKY/WX    TMP DP  RH WIND       PRES   REMARKS
WILLISTON      PTCLDY    55  51  86 N12       29.91F
MINOT          LGT RAIN  52  48  86 N24G33    29.83R
DICKINSON      CLOUDY    57  53  86 N12       29.86R
BISMARCK       MOCLDY    64  56  75 W7        29.79R
GRAND FORKS    MOCLDY    62  60  93 NE10      29.72F
FARGO          MOCLDY    73  62  68 S20G26    29.64F
BUFFALO SD       N/A     57  52  83 NW9       29.88R
RAPID CITY     RAIN      57  53  86 N25G35    29.95F
$$

REGIONAL REPORTS...WYOMING/IDAHO/WASHINGTON

CITY           SKY/WX    TMP DP  RH WIND       PRES   REMARKS
GILLETTE       CLOUDY    50  49  96 W3        29.97R
SHERIDAN       MOCLDY    52  49  89 NW6       30.01R
BUFFALO WY     PTCLDY    49  46  90 SW6       30.04R
CODY           PTCLDY    57  48  72 NW10      30.02R
YELLOWSTONE LA   N/A     40  35  83 CALM      30.15R
IDAHO FALLS    CLEAR     60  44  55 S7        29.99R
SALMON           N/A     54  43  66 N5        30.01R
BOISE          PTCLDY    61  45  55 NW13      29.97R
SPOKANE        PTCLDY    60  44  55 SW6       29.95R
$$

REGIONAL REPORTS...ALBERTA

CITY           SKY/WX    TMP DP  RH WIND       PRES   REMARKS
CALGARY        LGT RAIN  48  46  93 S14G20    29.96F
LETHBRIDGE     LGT RAIN  50  48  93 SE7       29.96F
MEDICINE HAT   CLOUDY    54  52  94 NW6       29.98S
$$

REGIONAL REPORTS...SASKATCHEWAN

CITY           SKY/WX    TMP DP  RH WIND       PRES   REMARKS
SWIFT CURRENT  MOCLDY    54  34  47 SE3       29.98F
REGINA         CLOUDY    52  39  62 N6        29.97R
SASKATOON      MOCLDY    45  30  57 NE5       30.02R
$$



USA.gov is the U.S. government's official web portal to all federal, state and local government web resources and services.